Miscellaneous Local Product
Issued by NWS Hastings, NE

Home | Current Version | Previous Version | Text Only | Print | Product List | Glossary Off
Versions: 1 2 3 4 5 6 7 8 9 10 11 12 13 14 15 16 17 18 19 20 21 22 23 24 25 26 27 28 29 30 31 32 33 34 35 36 37 38 39 40 41 42 43 44 45 46 47 48 49 50

000
AXUS43 KGID 222002
MISGRI

GID CWA HOURLY WEATHER ROUNDUP
NATIONAL WEATHER SERVICE HASTINGS NE
300 PM CDT TUE AUG 22 2017

NOTE: "FAIR" INDICATES FEW OR NO CLOUDS BELOW 12,000 FEET WITH NO
SIGNIFICANT WEATHER AND/OR OBSTRUCTIONS TO VISIBILITY.

...SOUTH CENTRAL NEBRASKA...

CITY           SKY/WX    TMP DP  RH WIND       PRES   REMARKS
GRAND ISLAND   SUNNY     76  48  37 N5        30.23F
HASTINGS       SUNNY     76  49  38 NE7       30.24F
KEARNEY        SUNNY     75  49  39 NW6       30.25F
ORD            SUNNY     76  42  29 CALM      30.22F
YORK           SUNNY     73  54  49 N10       30.22S
AURORA         SUNNY     73  51  45 N8        30.22F
LEXINGTON      SUNNY     75  53  46 SE7       30.25F
HOLDREGE       SUNNY     73  49  43 E3        30.25F
HEBRON         SUNNY     79  48  33 N10G16    30.20S

...NEBRASKA PANHANDLE...

CITY           SKY/WX    TMP DP  RH WIND       PRES   REMARKS
CHADRON        SUNNY     83  43  24 S15G22    30.19F
ALLIANCE       SUNNY     77  44  30 S16       30.25F
SCOTTSBLUFF    SUNNY     82  48  30 S15       30.23F
SIDNEY         SUNNY     80  44  27 S10G21    30.29F

...WESTERN AND NORTH CENTRAL NEBRASKA...

CITY           SKY/WX    TMP DP  RH WIND       PRES   REMARKS
VALENTINE      SUNNY     79  42  26 VRB3      30.23F
AINSWORTH      SUNNY     73  47  39 CALM      30.24F
ONEILL         SUNNY     73  49  41 N5        30.23F
BROKEN BOW     SUNNY     76  49  38 VRB3      30.24F
IMPERIAL       SUNNY     79  45  29 SE12      30.26F
NORTH PLATTE   SUNNY     77  51  40 VRB6      30.25F
MCCOOK         SUNNY     80  51  36 CALM      30.25F

...EASTERN NEBRASKA...

CITY           SKY/WX    TMP DP  RH WIND       PRES   REMARKS
NORFOLK        SUNNY     74  51  44 N9        30.19F
SO SIOUX CITY  SUNNY     74  51  44 NW12      30.17S
TEKAMAH        SUNNY     75  50  41 N12       30.17F
COLUMBUS       SUNNY     73  52  47 N12       30.21F
ALBION         SUNNY     74  51  45 N6        30.22F
OMAHA EPPLEY   MOSUNNY   76  50  40 N10       30.17S
OFFUTT AFB     SUNNY     76  47  35 N12G17    30.16F
MILLARD        SUNNY     76  52  42 NW8       30.17F
LINCOLN        SUNNY     77  53  43 N10       30.20F
NEBRASKA CITY  SUNNY     75  53  45 N8        30.17F
BEATRICE       SUNNY     76  53  44 N9        30.19S
FALLS CITY     SUNNY     76  52  43 NW14G20   30.14F

...NORTHERN KANSAS...

CITY           SKY/WX    TMP DP  RH WIND       PRES   REMARKS
GOODLAND       SUNNY     77  57  50 SE10      30.28F
HILL CITY      SUNNY     85  46  25 NE14      30.22F
NORTON         CLEAR     81  37  21 NE8       30.23S
PHILLIPSBURG   SUNNY     82  45  26 NE9       30.22S
SMITH CENTER   PTSUNNY   81  52  36 N9        30.20F
HAYS           SUNNY     83  56  39 NE10G20   30.19F
RUSSELL        SUNNY     84  52  33 E14       30.17F
CONCORDIA      SUNNY     82  54  37 N14       30.17F
SALINA         SUNNY     88  54  31 NE13G23   30.14F
TOPEKA         MOSUNNY   80  67  64 N6        30.12F



USA.gov is the U.S. government's official web portal to all federal, state and local government web resources and services.